Time,TemperatureF,DewpointF,PressureIn,WindDirection,WindDirectionDegrees,WindSpeedMPH,WindSpeedGustMPH,Humidity,HourlyPrecipIn,Conditions,Clouds,dailyrainin,SoftwareType,DateUTC
2013-08-10 00:11:00,61.0,61.0,-100.00,WNW,300,1.0,3.0,99,0.00,,,-99.99,,2013-08-10 05:11:00,
2013-08-10 00:32:00,60.0,60.0,-100.00,WNW,285,1.0,2.0,99,0.00,,,-99.99,,2013-08-10 05:32:00,
2013-08-10 00:43:00,60.0,60.0,-100.00,WNW,290,2.0,4.0,99,0.00,,,-99.99,,2013-08-10 05:43:00,
2013-08-10 01:02:00,59.0,59.0,-100.00,North,0,4.0,4.0,99,0.00,,,-99.99,,2013-08-10 06:02:00,
2013-08-10 01:11:00,59.0,59.0,-100.00,North,10,1.0,5.0,99,0.00,,,-99.99,,2013-08-10 06:11:00,
2013-08-10 01:32:00,58.0,58.0,-100.00,WNW,285,0.0,2.0,99,0.00,,,-99.99,,2013-08-10 06:32:00,
2013-08-10 01:44:00,58.0,58.0,-100.00,WNW,285,2.0,3.0,99,0.00,,,-99.99,,2013-08-10 06:44:00,
2013-08-10 01:53:00,58.0,58.0,-100.00,WNW,285,1.0,3.0,99,0.00,,,-99.99,,2013-08-10 06:53:00,
2013-08-10 02:12:00,57.0,57.0,-100.00,SW,230,2.0,2.0,99,0.00,,,-99.99,,2013-08-10 07:12:00,
2013-08-10 02:33:00,57.0,57.0,-100.00,WNW,300,0.0,1.0,99,0.00,,,-99.99,,2013-08-10 07:33:00,
2013-08-10 02:43:00,57.0,57.0,-100.00,North,350,0.0,2.0,99,0.00,,,-99.99,,2013-08-10 07:43:00,
2013-08-10 03:12:00,56.0,56.0,-100.00,SW,230,1.0,1.0,99,0.00,,,-99.99,,2013-08-10 08:12:00,
2013-08-10 03:32:00,56.0,56.0,-100.00,West,280,0.0,2.0,99,0.00,,,-99.99,,2013-08-10 08:32:00,
2013-08-10 03:43:00,56.0,56.0,-100.00,WNW,295,0.0,1.0,99,0.00,,,-99.99,,2013-08-10 08:43:00,
2013-08-10 04:02:00,56.0,56.0,-100.00,NW,315,0.0,1.0,99,0.00,,,-99.99,,2013-08-10 09:02:00,
2013-08-10 04:12:00,55.0,55.0,-100.00,WNW,295,0.0,1.0,99,0.00,,,-99.99,,2013-08-10 09:12:00,
2013-08-10 04:32:00,55.0,55.0,-100.00,WNW,290,1.0,2.0,99,0.00,,,-99.99,,2013-08-10 09:32:00,
2013-08-10 04:43:00,54.0,54.0,-100.00,WNW,290,0.0,2.0,99,0.00,,,-99.99,,2013-08-10 09:43:00,
2013-08-10 05:11:00,55.0,55.0,-100.00,West,280,1.0,2.0,99,0.00,,,-99.99,,2013-08-10 10:11:00,
2013-08-10 05:33:00,55.0,55.0,-100.00,WNW,295,0.0,1.0,99,0.00,,,-99.99,,2013-08-10 10:33:00,
2013-08-10 05:44:00,54.0,54.0,-100.00,WNW,285,0.0,1.0,99,0.00,,,-99.99,,2013-08-10 10:44:00,
2013-08-10 06:02:00,54.0,54.0,-100.00,NW,320,0.0,2.0,99,0.00,,,-99.99,,2013-08-10 11:02:00,
2013-08-10 06:11:00,54.0,54.0,-100.00,WNW,300,0.0,2.0,99,0.00,,,-99.99,,2013-08-10 11:11:00,
2013-08-10 06:22:00,53.0,53.0,-100.00,WNW,300,0.0,0.0,99,0.00,,,-99.99,,2013-08-10 11:22:00,
2013-08-10 06:33:00,53.0,53.0,-100.00,SW,225,1.0,1.0,99,0.00,,,-99.99,,2013-08-10 11:33:00,
2013-08-10 06:43:00,53.0,53.0,-100.00,WSW,250,0.0,1.0,99,0.00,,,-99.99,,2013-08-10 11:43:00,
2013-08-10 06:53:00,54.0,54.0,-100.00,NNE,20,0.0,2.0,99,0.00,,,-99.99,,2013-08-10 11:53:00,
2013-08-10 07:01:00,54.0,54.0,-100.00,NW,305,0.0,0.0,99,0.00,,,-99.99,,2013-08-10 12:01:00,
2013-08-10 07:11:00,55.0,55.0,-100.00,West,275,0.0,1.0,99,0.00,,,-99.99,,2013-08-10 12:11:00,
2013-08-10 07:22:00,55.0,55.0,-100.00,SW,235,0.0,1.0,99,0.00,,,-99.99,,2013-08-10 12:22:00,
2013-08-10 07:32:00,56.0,56.0,-100.00,SW,225,1.0,1.0,99,0.00,,,-99.99,,2013-08-10 12:32:00,
2013-08-10 07:42:00,57.0,57.0,-100.00,SW,230,2.0,2.0,99,0.00,,,-99.99,,2013-08-10 12:42:00,
2013-08-10 07:52:00,59.0,59.0,-100.00,SW,230,2.0,3.0,99,0.00,,,-99.99,,2013-08-10 12:52:00,
2013-08-10 08:11:00,61.0,61.0,-100.00,SW,215,2.0,2.0,99,0.00,,,-99.99,,2013-08-10 13:11:00,
2013-08-10 08:32:00,64.0,64.0,-100.00,SSW,205,1.0,2.0,99,0.00,,,-99.99,,2013-08-10 13:32:00,
2013-08-10 08:43:00,65.0,64.0,-100.00,SSW,205,2.0,2.0,94,0.00,,,-99.99,,2013-08-10 13:43:00,
2013-08-10 08:52:00,66.0,62.0,-100.00,SW,215,2.0,2.0,86,0.00,,,-99.99,,2013-08-10 13:52:00,
2013-08-10 09:02:00,67.0,62.0,-100.00,SW,225,1.0,2.0,83,0.00,,,-99.99,,2013-08-10 14:02:00,
2013-08-10 09:12:00,69.0,61.0,-100.00,South,190,0.0,2.0,75,0.00,,,-99.99,,2013-08-10 14:12:00,
2013-08-10 09:33:00,71.0,63.0,-100.00,SW,230,2.0,3.0,76,0.00,,,-99.99,,2013-08-10 14:33:00,
2013-08-10 09:42:00,71.0,63.0,-100.00,SW,235,1.0,2.0,75,0.00,,,-99.99,,2013-08-10 14:42:00,
2013-08-10 10:12:00,73.0,62.0,-100.00,SSW,205,2.0,4.0,67,0.00,,,-99.99,,2013-08-10 15:12:00,
2013-08-10 10:34:00,73.0,62.0,-100.00,West,265,4.0,7.0,69,0.00,,,-99.99,,2013-08-10 15:34:00,
2013-08-10 10:43:00,75.0,59.0,-100.00,SW,235,5.0,9.0,57,0.00,,,-99.99,,2013-08-10 15:43:00,
2013-08-10 11:11:00,76.0,58.0,-100.00,SSE,155,2.0,6.0,52,0.00,,,-99.99,,2013-08-10 16:11:00,
2013-08-10 11:22:00,78.0,58.0,-100.00,South,190,1.0,6.0,50,0.00,,,-99.99,,2013-08-10 16:22:00,
2013-08-10 11:32:00,78.0,61.0,-100.00,SSW,200,1.0,4.0,55,0.00,,,-99.99,,2013-08-10 16:32:00,
2013-08-10 11:43:00,78.0,57.0,-100.00,SE,135,0.0,6.0,48,0.00,,,-99.99,,2013-08-10 16:43:00,
2013-08-10 12:02:00,78.0,59.0,-100.00,SW,225,2.0,4.0,52,0.00,,,-99.99,,2013-08-10 17:02:00,
2013-08-10 12:12:00,79.0,56.0,-100.00,SSE,165,2.0,4.0,45,0.00,,,-99.99,,2013-08-10 17:12:00,
2013-08-10 12:22:00,79.0,56.0,-100.00,NE,40,1.0,4.0,45,0.00,,,-99.99,,2013-08-10 17:22:00,
2013-08-10 12:33:00,79.0,58.0,-100.00,East,95,2.0,6.0,48,0.00,,,-99.99,,2013-08-10 17:33:00,
2013-08-10 12:43:00,79.0,60.0,-100.00,West,260,1.0,6.0,51,0.00,,,-99.99,,2013-08-10 17:43:00,
2013-08-10 13:01:00,80.0,61.0,-100.00,SW,230,5.0,8.0,53,0.00,,,-99.99,,2013-08-10 18:01:00,
2013-08-10 13:11:00,79.0,58.0,-100.00,WSW,255,2.0,9.0,48,0.00,,,-99.99,,2013-08-10 18:11:00,
2013-08-10 13:23:00,78.0,59.0,-100.00,SSE,155,2.0,5.0,51,0.00,,,-99.99,,2013-08-10 18:23:00,
2013-08-10 13:32:00,80.0,59.0,-100.00,WSW,245,2.0,6.0,48,0.00,,,-99.99,,2013-08-10 18:32:00,
2013-08-10 13:44:00,81.0,62.0,-100.00,SW,215,6.0,12.0,52,0.00,,,-99.99,,2013-08-10 18:44:00,
2013-08-10 14:02:00,81.0,60.0,-100.00,North,10,2.0,6.0,48,0.00,,,-99.99,,2013-08-10 19:02:00,
2013-08-10 14:11:00,81.0,62.0,-100.00,SSW,200,4.0,8.0,52,0.00,,,-99.99,,2013-08-10 19:11:00,
2013-08-10 14:22:00,81.0,63.0,-100.00,WSW,240,3.0,7.0,53,0.00,,,-99.99,,2013-08-10 19:22:00,
2013-08-10 14:33:00,81.0,62.0,-100.00,WNW,285,6.0,9.0,53,0.00,,,-99.99,,2013-08-10 19:33:00,
2013-08-10 14:44:00,81.0,61.0,-100.00,NW,325,1.0,8.0,50,0.00,,,-99.99,,2013-08-10 19:44:00,
2013-08-10 15:02:00,83.0,62.0,-100.00,SSW,205,5.0,9.0,50,0.00,,,-99.99,,2013-08-10 20:02:00,
2013-08-10 15:12:00,82.0,62.0,-100.00,NW,315,7.0,9.0,49,0.00,,,-99.99,,2013-08-10 20:12:00,
2013-08-10 15:33:00,81.0,62.0,-100.00,East,85,2.0,5.0,51,0.00,,,-99.99,,2013-08-10 20:33:00,
2013-08-10 15:43:00,83.0,64.0,-100.00,SW,235,5.0,7.0,51,0.00,,,-99.99,,2013-08-10 20:43:00,
2013-08-10 16:02:00,84.0,62.0,-100.00,South,175,1.0,4.0,48,0.00,,,-99.99,,2013-08-10 21:02:00,
2013-08-10 16:12:00,83.0,63.0,-100.00,WSW,245,2.0,7.0,52,0.00,,,-99.99,,2013-08-10 21:12:00,
2013-08-10 16:22:00,82.0,64.0,-100.00,SW,235,4.0,6.0,55,0.00,,,-99.99,,2013-08-10 21:22:00,
2013-08-10 16:32:00,81.0,64.0,-100.00,WSW,240,6.0,9.0,57,0.00,,,-99.99,,2013-08-10 21:32:00,
2013-08-10 16:42:00,80.0,63.0,-100.00,West,265,2.0,7.0,56,0.00,,,-99.99,,2013-08-10 21:42:00,
2013-08-10 16:52:00,80.0,65.0,-100.00,WSW,240,4.0,7.0,59,0.00,,,-99.99,,2013-08-10 21:52:00,
2013-08-10 17:01:00,80.0,64.0,-100.00,SSW,200,2.0,7.0,58,0.00,,,-99.99,,2013-08-10 22:01:00,
2013-08-10 17:11:00,83.0,65.0,-100.00,South,185,3.0,7.0,54,0.00,,,-99.99,,2013-08-10 22:11:00,
2013-08-10 17:21:00,85.0,65.0,-100.00,SW,230,6.0,10.0,52,0.00,,,-99.99,,2013-08-10 22:21:00,
2013-08-10 17:43:00,84.0,65.0,-100.00,SSW,205,4.0,6.0,53,0.00,,,-99.99,,2013-08-10 22:43:00,
2013-08-10 18:01:00,81.0,67.0,-100.00,SW,225,4.0,6.0,62,0.00,,,-99.99,,2013-08-10 23:01:00,
2013-08-10 18:12:00,80.0,67.0,-100.00,SSW,200,2.0,6.0,63,0.00,,,-99.99,,2013-08-10 23:12:00,
2013-08-10 18:22:00,81.0,65.0,-100.00,SW,215,3.0,5.0,58,0.00,,,-99.99,,2013-08-10 23:22:00,
2013-08-10 18:32:00,81.0,66.0,-100.00,SSW,210,3.0,4.0,59,0.00,,,-99.99,,2013-08-10 23:32:00,
2013-08-10 18:43:00,79.0,67.0,-100.00,South,175,1.0,6.0,65,0.00,,,-99.99,,2013-08-10 23:43:00,
2013-08-10 19:02:00,78.0,67.0,-100.00,SSW,205,0.0,3.0,69,0.00,,,-99.99,,2013-08-11 00:02:00,
2013-08-10 19:11:00,78.0,68.0,-100.00,SSW,210,0.0,1.0,69,0.00,,,-99.99,,2013-08-11 00:11:00,
2013-08-10 19:32:00,77.0,68.0,-100.00,SSE,150,1.0,2.0,72,0.00,,,-99.99,,2013-08-11 00:32:00,
2013-08-10 19:42:00,77.0,66.0,-100.00,South,180,0.0,2.0,69,0.00,,,-99.99,,2013-08-11 00:42:00,
2013-08-10 19:52:00,77.0,65.0,-100.00,SE,140,0.0,2.0,66,0.00,,,-99.99,,2013-08-11 00:52:00,
2013-08-10 20:01:00,77.0,67.0,-100.00,SSE,155,0.0,2.0,70,0.00,,,-99.99,,2013-08-11 01:01:00,
2013-08-10 20:11:00,77.0,67.0,-100.00,South,170,1.0,2.0,71,0.00,,,-99.99,,2013-08-11 01:11:00,
2013-08-10 20:22:00,75.0,67.0,-100.00,SSW,210,1.0,3.0,74,0.00,,,-99.99,,2013-08-11 01:22:00,
2013-08-10 20:32:00,75.0,66.0,-100.00,WSW,240,0.0,4.0,73,0.00,,,-99.99,,2013-08-11 01:32:00,
2013-08-10 20:43:00,74.0,66.0,-100.00,SSW,200,0.0,1.0,75,0.00,,,-99.99,,2013-08-11 01:43:00,
2013-08-10 21:02:00,72.0,66.0,-100.00,West,265,0.0,3.0,80,0.00,,,-99.99,,2013-08-11 02:02:00,
2013-08-10 21:11:00,72.0,67.0,-100.00,North,0,1.0,3.0,85,0.00,,,-99.99,,2013-08-11 02:11:00,
2013-08-10 21:22:00,71.0,66.0,-100.00,West,270,2.0,4.0,85,0.00,,,-99.99,,2013-08-11 02:22:00,
2013-08-10 21:32:00,70.0,66.0,-100.00,West,280,1.0,3.0,86,0.00,,,-99.99,,2013-08-11 02:32:00,
2013-08-10 21:43:00,70.0,65.0,-100.00,WNW,290,1.0,3.0,85,0.00,,,-99.99,,2013-08-11 02:43:00,
2013-08-10 21:56:00,69.0,66.0,-100.00,NW,315,1.0,2.0,89,0.00,,,-99.99,,2013-08-11 02:56:00,
2013-08-10 22:05:00,69.0,66.0,-100.00,NW,305,2.0,4.0,89,0.00,,,-99.99,,2013-08-11 03:05:00,
2013-08-10 22:17:00,69.0,65.0,-100.00,West,280,3.0,4.0,87,0.00,,,-99.99,,2013-08-11 03:17:00,
2013-08-10 22:27:00,68.0,65.0,-100.00,West,275,1.0,1.0,89,0.00,,,-99.99,,2013-08-11 03:27:00,
2013-08-10 22:35:00,68.0,65.0,-100.00,SW,235,0.0,1.0,91,0.00,,,-99.99,,2013-08-11 03:35:00,
2013-08-10 22:44:00,68.0,65.0,-100.00,West,260,0.0,3.0,89,0.00,,,-99.99,,2013-08-11 03:44:00,
2013-08-10 22:54:00,69.0,64.0,-100.00,SSW,210,0.0,2.0,84,0.00,,,-99.99,,2013-08-11 03:54:00,
2013-08-10 23:01:00,69.0,64.0,-100.00,WNW,285,2.0,4.0,83,0.00,,,-99.99,,2013-08-11 04:01:00,
2013-08-10 23:12:00,70.0,64.0,-100.00,West,280,1.0,4.0,82,0.00,,,-99.99,,2013-08-11 04:12:00,
2013-08-10 23:22:00,69.0,64.0,-100.00,SSW,195,1.0,2.0,85,0.00,,,-99.99,,2013-08-11 04:22:00,
2013-08-10 23:32:00,69.0,64.0,-100.00,South,175,1.0,6.0,86,0.00,,,-99.99,,2013-08-11 04:32:00,
2013-08-10 23:43:00,68.0,64.0,-100.00,SW,225,0.0,6.0,87,0.00,,,-99.99,,2013-08-11 04:43:00,
2013-08-10 23:53:00,68.0,64.0,-100.00,West,280,2.0,4.0,87,0.00,,,-99.99,,2013-08-11 04:53:00,